User: anonymous   Login
Location: Unspecified
(0.0000°N, 0.0000°E)
Time: 20:49:05
(UTC+00:00)
Language:

STARLINK-31031 - Orbit

View from above orbital plane
View from above orbital plane
View from above satellite
View from above satellite

Ground track
Ground track

The orbit is defined by the following mean orbital elements,

1 58711U          26145.27768609 +.00000000 +00000-0 +42194-4 0 00002
2 58711  53.1594 234.0340 0000772  88.3077 271.8014 15.34390210    07
Epoch (UTC): 25 May 2026 06:39:52
Eccentricity: 0.0000772
inclination: 53.1594°
perigee height: 462 km
apogee height: 463 km
right ascension of ascending node: 234.0340°
argument of perigee: 88.3077°
revolutions per day: 15.34390210
mean anomaly at epoch: 271.8014°

The dashed part of the orbit path shows where the satellite is in the earth's shadow,  

DLR